Showing default

NUSAT-37 (JOAN CLARKE), 56203

Orbit data source: Space-Track

NUSAT-37 (JOAN CLARKE), 56203 is a payload satellite owned by URUGUS S.A. (AR) in SSO that was launched on Sat, 15 Apr 2023 UTC via an FALCON 9 launch vehicle from the Air Force Western Test Range (AFWTR). Payload-class satellites include a variety of spacecraft equipped with specific instruments for various scientific and technological missions. These include communications satellites like Starlink; space stations such as the ISS; scientific satellites like the Hubble; Earth observation satellites from companies like Planet Labs, Umbra, and HawkEye 360; GPS; miniature CubeSats for education and research; and military/defense satellites.

Loading next visibility...
Identifier
56203, 2023-054AB
Orbit
SSO
Last TLE update
9 hours ago
Origin
Manufacturer
URUGUS S.A.
Mission
Operational Commercial Imaging
Bus & Motor
NEWSAT V, Unknown motor
Mass
41.5 kg wet, 38.5 kg dry
Launch date (UTC)
2023-04-15 (2 years ago)
Launch vehicle
FALCON 9
Launch site
Air Force Western Test Range (AFWTR)
Object type
Payload
Rocket body
Debris
Shape & HBR
Box, 0.813 m
Radar Cross Section
0.542 m², Medium (>0.1 m² and < 1m²)

Expand to show TLE details & history

TLE from 9 hours ago
0 NUSAT-37 (JOAN CLARKE)
1 56203U 23054AB  25128.91604724  .00033058  00000-0  68768-3 0  9998
2 56203  97.2965  29.8720 0007390  66.4538 293.7487 15.45538634116221
Epoch: 2025-05-08T21:59Z
Definitive object data (Epoch: 2025-05-08T21:59:06.481Z)
Latitude
-0.00002°
Longitude
-166.88469°
Altitude
430.9 km
Speed
7.654 km/s
True Right ascension
01h 59m 29s
True Declination
0° 00' 00"
Sunlit
Object was in daylight at TLE epoch
Visualization TLE readout
Latitude
-34.99494°
Longitude
8.36546°
Altitude
447.425 km
Speed
7.64 km/s
Apparent Right ascension
09h 49m 32s
Apparent Declination
-77° 46' 54"
Sunlit
Object is in full shadow
Visualization observer readout
Local Sidereal Time
14:49:46
Azimuth
194.607° SSW
Elevation
-35.822°
Doppler factor
1
Orbital elements
Apogee altitude
431.752 km
Perigee altitude
421.694 km
Semi-major axis
6,804.86 km
Eccentricity
0.000739
Inclination
97.2965°
RAAN
29.872°
Arg. of periapsis
66.4538°
True anomaly
293.67116°
Mean anomaly
293.7487°
Eccentric anomaly
293.70993°
Mean motion
3.86647 °/min
BSTAR
0.00068768
Orbital period
93.11 mins
Loading maneuver chart data...
Loading SW <> Apogee altitude chart data...
Loading historical data...
Loading historical data...
Loading historical data...
Loading historical data...
Loading historical data...
Loading historical data...
Loading historical data...

NUSAT-37 (JOAN CLARKE) Visibility forecast

Observer location: undefined°, undefined°

Span
Click to sort rows by Start time (UTC) header in descending order
Start Az.
Max El. time (UTC)
Max El. Az.
Max El.
End time (UTC)
End Az.
4 mins2025-05-09 16:46:53.691Z116.981° SE2025-05-09 16:48:53.691Z68.047° E21.601°2025-05-09 16:50:53.691Z22.766° NE
|